| time (UTC) | temp F | wind direction | speed knots | gust knots | rain 1hr in | rain 24hr in | rain mn in | humidity % | barometer mb |
| 20260510121017 | 52 | 247 | 3.5 | 7.0 | 0.04 | 0.53 | 0.22 | 84 | 1013.1 |
| 20260510120518 | 52 | 231 | 2.6 | 7.0 | 0.04 | 0.53 | 0.22 | 86 | 1013.3 |
| 20260510120018 | 51 | 279 | 3.5 | 10.4 | 0.04 | 0.53 | 0.22 | 87 | 1013.3 |
| 20260510115518 | 51 | 258 | 5.2 | 12.2 | 0.04 | 0.53 | 0.22 | 85 | 1013.3 |
| 20260510115017 | 51 | 246 | 7.0 | 12.2 | 0.05 | 0.53 | 0.22 | 86 | 1013.3 |
| 20260510114517 | 51 | 248 | 7.0 | 13.0 | 0.11 | 0.52 | 0.21 | 86 | 1013.3 |
| 20260510114017 | 52 | 239 | 8.7 | 13.0 | 0.11 | 0.50 | 0.20 | 84 | 1013.4 |
| 20260510113518 | 52 | 245 | 8.7 | 14.8 | 0.09 | 0.49 | 0.18 | 82 | 1013.4 |
| 20260510113017 | 53 | 224 | 9.6 | 17.4 | 0.09 | 0.49 | 0.18 | 82 | 1013.4 |
| 20260510112517 | 53 | 240 | 7.0 | 13.9 | 0.09 | 0.49 | 0.18 | 83 | 1013.2 |
| 20260510112017 | 53 | 245 | 10.4 | 14.8 | 0.09 | 0.49 | 0.18 | 82 | 1012.9 |
| 20260510111517 | 53 | 269 | 6.1 | 12.2 | 0.09 | 0.49 | 0.18 | 85 | 1012.6 |
| 20260510111017 | 53 | 282 | 6.1 | 14.8 | 0.09 | 0.49 | 0.18 | 86 | 1012.6 |
| 20260510110518 | 52 | 288 | 8.7 | 17.4 | 0.09 | 0.49 | 0.18 | 87 | 1012.5 |
| 20260510110017 | 53 | 278 | 6.1 | 13.0 | 0.09 | 0.49 | 0.18 | 87 | 1012.4 |
| 20260510105017 | 55 | 223 | 7.8 | 17.4 | 0.09 | 0.48 | 0.17 | 84 | 1012.3 |
| 20260510104517 | 56 | 226 | 6.1 | 13.0 | 0.02 | 0.41 | 0.10 | 80 | 1012.1 |
| 20260510104017 | 57 | 185 | 8.7 | 18.2 | 0.00 | 0.39 | 0.09 | 77 | 1011.9 |
| 20260510103018 | 57 | 188 | 10.4 | 21.7 | 0.00 | 0.39 | 0.09 | 76 | 1011.8 |
| 20260510101519 | 56 | 177 | 12.2 | 20.0 | 0.00 | 0.40 | 0.09 | 79 | 1012.0 |
| 20260510101019 | 56 | 186 | 8.7 | 17.4 | 0.00 | 0.40 | 0.09 | 80 | 1012.1 |
| 20260510100508 | 56 | 174 | 7.8 | 14.8 | 0.00 | 0.40 | 0.09 | 81 | 1012.1 |
| 20260510100019 | 56 | 170 | 8.7 | 18.2 | 0.00 | 0.40 | 0.09 | 82 | 1012.2 |
| 20260510095518 | 55 | 186 | 7.0 | 12.2 | 0.00 | 0.40 | 0.09 | 84 | 1012.3 |
| 20260510095019 | 55 | 180 | 6.1 | 10.4 | 0.00 | 0.40 | 0.09 | 83 | 1012.2 |
| 20260510094519 | 55 | 182 | 7.8 | 13.0 | 0.00 | 0.40 | 0.09 | 82 | 1012.4 |
| 20260510094008 | 55 | 166 | 7.0 | 10.4 | 0.00 | 0.40 | 0.09 | 81 | 1012.4 |
| 20260510093519 | 55 | 182 | 7.8 | 13.0 | 0.00 | 0.40 | 0.09 | 82 | 1012.3 |
| 20260510093019 | 55 | 187 | 7.0 | 11.3 | 0.00 | 0.40 | 0.09 | 84 | 1012.4 |
| 20260510092508 | 55 | 191 | 6.1 | 10.4 | 0.00 | 0.40 | 0.09 | 85 | 1012.4 |
| 20260510092019 | 55 | 183 | 6.1 | 10.4 | 0.00 | 0.41 | 0.09 | 85 | 1012.6 |
| 20260510091019 | 54 | 175 | 7.0 | 11.3 | 0.00 | 0.43 | 0.09 | 85 | 1012.6 |
| 20260510090008 | 53 | 191 | 5.2 | 10.4 | 0.01 | 0.43 | 0.09 | 89 | 1012.7 |
| 20260510085519 | 53 | 188 | 5.2 | 8.7 | 0.01 | 0.43 | 0.09 | 89 | 1012.7 |
| 20260510085019 | 53 | 184 | 5.2 | 11.3 | 0.01 | 0.43 | 0.09 | 89 | 1012.8 |
| 20260510084519 | 53 | 174 | 6.1 | 10.4 | 0.02 | 0.43 | 0.09 | 89 | 1013.0 |
| 20260510084018 | 53 | 177 | 5.2 | 10.4 | 0.02 | 0.43 | 0.09 | 89 | 1012.8 |
| 20260510083019 | 53 | 188 | 7.0 | 13.0 | 0.02 | 0.43 | 0.09 | 89 | 1012.9 |
| 20260510082518 | 53 | 183 | 6.1 | 8.7 | 0.02 | 0.43 | 0.09 | 90 | 1012.8 |
| 20260510082019 | 53 | 202 | 5.2 | 13.0 | 0.02 | 0.43 | 0.09 | 89 | 1013.0 |
| 20260510081519 | 53 | 186 | 6.1 | 13.0 | 0.02 | 0.43 | 0.09 | 88 | 1012.8 |
| 20260510081019 | 53 | 194 | 6.1 | 12.2 | 0.02 | 0.43 | 0.09 | 88 | 1012.8 |
| 20260510080508 | 53 | 207 | 7.8 | 11.3 | 0.02 | 0.43 | 0.09 | 87 | 1013.1 |
| 20260510080020 | 53 | 196 | 5.2 | 10.4 | 0.01 | 0.43 | 0.08 | 89 | 1013.1 |
| 20260510075519 | 53 | 197 | 6.1 | 10.4 | 0.01 | 0.43 | 0.08 | 89 | 1013.2 |
| 20260510074019 | 52 | 194 | 6.1 | 8.7 | 0.00 | 0.42 | 0.07 | 89 | 1013.3 |
| 20260510073519 | 52 | 182 | 4.3 | 8.7 | 0.00 | 0.42 | 0.07 | 90 | 1013.2 |
| 20260510073019 | 52 | 197 | 5.2 | 8.7 | 0.00 | 0.42 | 0.07 | 90 | 1013.1 |
| 20260510071520 | 51 | 178 | 3.5 | 6.1 | 0.00 | 0.42 | 0.07 | 92 | 1013.0 |
| 20260510071019 | 51 | 180 | 2.6 | 4.3 | 0.00 | 0.42 | 0.07 | 92 | 1013.1 |
| 20260510070522 | 50 | 180 | 2.6 | 5.2 | 0.00 | 0.42 | 0.07 | 92 | 1013.1 |
| 20260510070019 | 50 | 192 | 2.6 | 6.1 | 0.00 | 0.42 | 0.07 | 92 | 1013.1 |
| 20260510065518 | 50 | 205 | 1.7 | 2.6 | 0.00 | 0.42 | 0.07 | 93 | 1013.1 |
| 20260510065019 | 50 | 175 | 3.5 | 5.2 | 0.00 | 0.42 | 0.07 | 93 | 1013.0 |
| 20260510064519 | 50 | 190 | 4.3 | 5.2 | 0.00 | 0.42 | 0.07 | 93 | 1012.9 |
| 20260510064019 | 50 | 189 | 1.7 | 4.3 | 0.00 | 0.42 | 0.07 | 93 | 1012.8 |
| 20260510063519 | 49 | 197 | 2.6 | 4.3 | 0.00 | 0.42 | 0.07 | 93 | 1012.9 |
| 20260510063019 | 49 | 194 | 1.7 | 4.3 | 0.00 | 0.42 | 0.07 | 94 | 1012.8 |
| 20260510062518 | 49 | 168 | 0.0 | 4.3 | 0.00 | 0.42 | 0.07 | 94 | 1012.8 |
| 20260510062019 | 49 | 174 | 0.9 | 2.6 | 0.00 | 0.42 | 0.07 | 94 | 1012.8 |
| 20260510060507 | 48 | 186 | 0.0 | 0.9 | 0.00 | 0.42 | 0.07 | 94 | 1012.7 |
| 20260510060019 | 48 | 186 | 0.0 | 0.9 | 0.00 | 0.42 | 0.07 | 94 | 1012.8 |
| 20260510055518 | 48 | 186 | 0.0 | 0.9 | 0.00 | 0.42 | 0.07 | 94 | 1012.7 |
| 20260510055018 | 48 | 186 | 0.0 | 1.7 | 0.00 | 0.42 | 0.07 | 94 | 1012.6 |
| 20260510054519 | 48 | 186 | 0.9 | 2.6 | 0.00 | 0.42 | 0.07 | 94 | 1012.6 |
| 20260510054007 | 48 | 200 | 1.7 | 2.6 | 0.00 | 0.42 | 0.07 | 94 | 1012.5 |
| 20260510053518 | 48 | 193 | 1.7 | 2.6 | 0.00 | 0.42 | 0.07 | 94 | 1012.6 |
| 20260510053019 | 48 | 196 | 0.9 | 2.6 | 0.00 | 0.42 | 0.07 | 95 | 1012.5 |
| 20260510052518 | 47 | 196 | 1.7 | 2.6 | 0.00 | 0.42 | 0.07 | 95 | 1012.4 |
| 20260510052018 | 47 | 196 | 0.0 | 0.0 | 0.00 | 0.42 | 0.07 | 95 | 1012.3 |
| 20260510051518 | 47 | 196 | 0.0 | 2.6 | 0.00 | 0.42 | 0.07 | 94 | 1012.3 |
| 20260510051018 | 47 | 196 | 0.0 | 0.0 | 0.00 | 0.42 | 0.07 | 93 | 1012.3 |
| 20260510050518 | 47 | 196 | 0.0 | 0.0 | 0.00 | 0.42 | 0.07 | 93 | 1012.4 |
| 20260510050019 | 47 | 196 | 0.0 | 0.0 | 0.00 | 0.42 | 0.07 | 94 | 1012.3 |
| 20260510045019 | 47 | 196 | 0.0 | 0.0 | 0.00 | 0.42 | 0.07 | 94 | 1012.4 |
| 20260510044519 | 47 | 196 | 0.0 | 0.0 | 0.00 | 0.42 | 0.07 | 93 | 1012.4 |
| 20260510043507 | 47 | 196 | 0.0 | 0.0 | 0.00 | 0.42 | 0.07 | 93 | 1012.5 |
| 20260510043019 | 48 | 196 | 0.0 | 0.0 | 0.00 | 0.42 | 0.07 | 93 | 1012.4 |
| 20260510042518 | 48 | 196 | 0.0 | 0.0 | 0.00 | 0.42 | 0.07 | 93 | 1012.5 |
| 20260510042018 | 48 | 196 | 0.0 | 1.7 | 0.00 | 0.42 | 0.07 | 93 | 1012.6 |
| 20260510041519 | 48 | 196 | 1.7 | 2.6 | 0.00 | 0.42 | 0.07 | 94 | 1012.5 |
| 20260510041019 | 48 | 164 | 0.9 | 4.3 | 0.00 | 0.42 | 0.07 | 94 | 1012.4 |
| 20260510040519 | 48 | 150 | 0.9 | 2.6 | 0.00 | 0.42 | 0.07 | 94 | 1012.4 |
| 20260510040019 | 48 | 150 | 0.0 | 1.7 | 0.00 | 0.42 | 0.07 | 94 | 1012.5 |
| 20260510035508 | 48 | 150 | 0.0 | 0.0 | 0.00 | 0.42 | 0.07 | 94 | 1012.5 |
| 20260510034519 | 49 | 150 | 0.9 | 2.6 | 0.00 | 0.42 | 0.07 | 94 | 1012.5 |
| 20260510034019 | 49 | 164 | 0.9 | 2.6 | 0.00 | 0.42 | 0.07 | 94 | 1012.7 |
| 20260510033519 | 49 | 171 | 1.7 | 4.3 | 0.00 | 0.42 | 0.07 | 94 | 1012.8 |
| 20260510033018 | 49 | 185 | 1.7 | 2.6 | 0.00 | 0.42 | 0.07 | 94 | 1012.8 |
| 20260510032518 | 49 | 197 | 0.9 | 2.6 | 0.00 | 0.42 | 0.07 | 93 | 1012.8 |
| 20260510032018 | 49 | 169 | 1.7 | 2.6 | 0.00 | 0.42 | 0.07 | 94 | 1012.9 |
| 20260510031518 | 49 | 173 | 0.9 | 2.6 | 0.00 | 0.42 | 0.07 | 93 | 1012.9 |
| 20260510031018 | 49 | 181 | 1.7 | 2.6 | 0.00 | 0.42 | 0.07 | 93 | 1013.0 |
| 20260510030519 | 49 | 191 | 0.0 | 2.6 | 0.00 | 0.42 | 0.07 | 94 | 1013.0 |
| 20260510025008 | 49 | 190 | 4.3 | 6.1 | 0.00 | 0.42 | 0.07 | 93 | 1013.0 |
| 20260510023519 | 49 | 186 | 2.6 | 4.3 | 0.00 | 0.42 | 0.07 | 93 | 1013.1 |
| 20260510023019 | 50 | 175 | 1.7 | 2.6 | 0.00 | 0.42 | 0.07 | 93 | 1013.1 |
| 20260510022519 | 50 | 191 | 2.6 | 5.2 | 0.00 | 0.42 | 0.07 | 93 | 1013.1 |
| 20260510022018 | 50 | 193 | 2.6 | 4.3 | 0.00 | 0.42 | 0.07 | 93 | 1013.1 |
| 20260510021519 | 50 | 191 | 2.6 | 6.1 | 0.00 | 0.42 | 0.07 | 93 | 1013.2 |
| 20260510021018 | 50 | 182 | 4.3 | 5.2 | 0.00 | 0.42 | 0.07 | 93 | 1013.2 |
| 20260510020519 | 50 | 192 | 2.6 | 5.2 | 0.00 | 0.42 | 0.07 | 93 | 1013.0 |
| 20260510020018 | 50 | 183 | 1.7 | 4.3 | 0.00 | 0.42 | 0.07 | 93 | 1013.0 |
| 20260510015518 | 50 | 188 | 2.6 | 4.3 | 0.00 | 0.42 | 0.07 | 93 | 1013.0 |
| 20260510015008 | 50 | 178 | 2.6 | 4.3 | 0.00 | 0.42 | 0.07 | 92 | 1013.0 |
| 20260510014519 | 50 | 191 | 1.7 | 2.6 | 0.00 | 0.42 | 0.07 | 92 | 1013.0 |
| 20260510014018 | 50 | 189 | 2.6 | 4.3 | 0.00 | 0.42 | 0.07 | 92 | 1013.0 |
| 20260510013507 | 50 | 201 | 0.0 | 4.3 | 0.00 | 0.42 | 0.07 | 92 | 1013.0 |
| 20260510013019 | 50 | 201 | 1.7 | 4.3 | 0.01 | 0.42 | 0.07 | 92 | 1013.0 |
| 20260510012018 | 50 | 188 | 2.6 | 4.3 | 0.01 | 0.42 | 0.07 | 92 | 1013.1 |
| 20260510011508 | 50 | 188 | 2.6 | 4.3 | 0.01 | 0.42 | 0.07 | 92 | 1013.0 |
| 20260510011018 | 51 | 165 | 2.6 | 4.3 | 0.01 | 0.42 | 0.07 | 92 | 1013.0 |
| 20260510010508 | 51 | 191 | 1.7 | 2.6 | 0.01 | 0.42 | 0.07 | 92 | 1013.0 |
| 20260510010008 | 51 | 189 | 2.6 | 4.3 | 0.01 | 0.42 | 0.07 | 91 | 1013.2 |
| 20260510005507 | 51 | 191 | 0.9 | 4.3 | 0.01 | 0.42 | 0.07 | 91 | 1013.1 |
| 20260510004507 | 51 | 186 | 1.7 | 4.3 | 0.01 | 0.42 | 0.07 | 91 | 1013.1 |
| 20260510004007 | 51 | 160 | 1.7 | 5.2 | 0.01 | 0.42 | 0.07 | 91 | 1013.1 |
| 20260510003507 | 51 | 183 | 3.5 | 6.1 | 0.02 | 0.42 | 0.07 | 90 | 1013.2 |
| 20260510003008 | 51 | 196 | 4.3 | 6.1 | 0.01 | 0.41 | 0.06 | 90 | 1013.3 |
| 20260510002508 | 51 | 190 | 4.3 | 7.0 | 0.02 | 0.41 | 0.06 | 90 | 1013.3 |
| 20260510002008 | 51 | 187 | 2.6 | 5.2 | 0.02 | 0.41 | 0.06 | 90 | 1013.2 |
| 20260510001507 | 51 | 217 | 1.7 | 5.2 | 0.02 | 0.41 | 0.06 | 90 | 1013.2 |
| 20260510001008 | 51 | 208 | 2.6 | 7.0 | 0.06 | 0.41 | 0.06 | 90 | 1013.2 |
| 20260510000508 | 51 | 210 | 2.6 | 7.8 | 0.06 | 0.41 | 0.06 | 90 | 1013.2 |
| 20260510000008 | 51 | 200 | 4.3 | 7.8 | 0.06 | 0.41 | 0.06 | 90 | 1013.2 |
| 20260509235510 | 51 | 205 | 4.3 | 6.1 | 0.06 | 0.41 | 0.06 | 90 | 1013.2 |
| 20260509235007 | 51 | 201 | 2.6 | 5.2 | 0.06 | 0.41 | 0.06 | 90 | 1013.3 |
| 20260509234507 | 51 | 206 | 4.3 | 7.0 | 0.06 | 0.41 | 0.06 | 90 | 1013.3 |
| 20260509234008 | 51 | 209 | 3.5 | 7.0 | 0.06 | 0.41 | 0.06 | 91 | 1013.2 |
| 20260509233508 | 51 | 216 | 4.3 | 7.0 | 0.06 | 0.40 | 0.06 | 91 | 1013.2 |
| 20260509233007 | 51 | 214 | 4.3 | 7.8 | 0.06 | 0.40 | 0.06 | 91 | 1013.4 |
| 20260509232507 | 51 | 199 | 4.3 | 7.8 | 0.05 | 0.39 | 0.05 | 92 | 1013.4 |
| 20260509232007 | 51 | 240 | 3.5 | 7.0 | 0.05 | 0.39 | 0.05 | 92 | 1013.6 |
| 20260509231507 | 51 | 211 | 1.7 | 5.2 | 0.04 | 0.39 | 0.04 | 92 | 1013.5 |
| 20260509231007 | 51 | 197 | 4.3 | 7.0 | 0.00 | 0.35 | 0.00 | 91 | 1013.6 |
| 20260509230507 | 51 | 187 | 2.6 | 5.2 | 0.00 | 0.35 | 0.00 | 90 | 1013.3 |
| 20260509230008 | 51 | 181 | 2.6 | 4.3 | 0.00 | 0.35 | 0.00 | 90 | 1013.2 |
| 20260509225507 | 51 | 197 | 2.6 | 4.3 | 0.00 | 0.35 | 0.00 | 90 | 1013.1 |
| 20260509224508 | 51 | 211 | 0.9 | 2.6 | 0.00 | 0.35 | 0.00 | 90 | 1013.1 |
| 20260509223508 | 51 | 206 | 1.7 | 4.3 | 0.00 | 0.35 | 0.00 | 89 | 1013.0 |
| 20260509223008 | 51 | 193 | 4.3 | 7.8 | 0.00 | 0.35 | 0.00 | 89 | 1013.0 |
| 20260509222507 | 51 | 176 | 2.6 | 6.1 | 0.00 | 0.35 | 0.00 | 89 | 1012.8 |
| 20260509222007 | 51 | 189 | 3.5 | 5.2 | 0.01 | 0.35 | 0.00 | 87 | 1012.6 |
| 20260509221507 | 51 | 187 | 3.5 | 6.1 | 0.02 | 0.35 | 0.00 | 86 | 1012.6 |
| 20260509220508 | 51 | 211 | 3.5 | 8.7 | 0.03 | 0.35 | 0.00 | 86 | 1012.6 |
| 20260509215507 | 51 | 256 | 4.3 | 8.7 | 0.09 | 0.35 | 0.35 | 88 | 1012.5 |
| 20260509215007 | 51 | 252 | 2.6 | 7.0 | 0.09 | 0.35 | 0.35 | 89 | 1012.5 |
| 20260509214508 | 50 | 250 | 4.3 | 7.0 | 0.09 | 0.35 | 0.35 | 89 | 1012.5 |
| 20260509214007 | 50 | 261 | 4.3 | 7.8 | 0.09 | 0.35 | 0.35 | 89 | 1012.5 |
| 20260509213507 | 50 | 262 | 5.2 | 10.4 | 0.09 | 0.35 | 0.35 | 89 | 1012.5 |
| 20260509213007 | 50 | 267 | 5.2 | 11.3 | 0.09 | 0.35 | 0.35 | 90 | 1012.6 |
| 20260509212507 | 50 | 283 | 4.3 | 7.8 | 0.09 | 0.35 | 0.35 | 90 | 1012.6 |
| 20260509212007 | 50 | 287 | 6.1 | 10.4 | 0.08 | 0.34 | 0.34 | 89 | 1012.6 |
| 20260509211507 | 50 | 280 | 4.3 | 12.2 | 0.08 | 0.34 | 0.34 | 89 | 1012.7 |
| 20260509211007 | 51 | 273 | 7.8 | 14.8 | 0.06 | 0.32 | 0.32 | 88 | 1012.7 |
| 20260509210008 | 52 | 294 | 7.0 | 13.0 | 0.05 | 0.31 | 0.31 | 85 | 1012.6 |
| 20260509205507 | 55 | 275 | 12.2 | 22.6 | 0.00 | 0.26 | 0.26 | 78 | 1012.6 |
| 20260509204507 | 56 | 194 | 7.8 | 13.9 | 0.00 | 0.26 | 0.26 | 75 | 1011.1 |
| 20260509204007 | 56 | 191 | 6.1 | 12.2 | 0.00 | 0.26 | 0.26 | 75 | 1011.0 |
| 20260509203508 | 56 | 188 | 8.7 | 13.9 | 0.00 | 0.26 | 0.26 | 74 | 1011.0 |
| 20260509203007 | 56 | 196 | 7.8 | 13.0 | 0.00 | 0.26 | 0.26 | 75 | 1010.9 |
| 20260509202507 | 56 | 188 | 6.1 | 12.2 | 0.00 | 0.26 | 0.26 | 75 | 1010.8 |
| 20260509202007 | 56 | 191 | 6.1 | 13.0 | 0.00 | 0.26 | 0.26 | 75 | 1010.7 |
| 20260509201507 | 56 | 194 | 6.1 | 13.9 | 0.00 | 0.26 | 0.26 | 76 | 1010.6 |
| 20260509201007 | 57 | 179 | 3.5 | 8.7 | 0.00 | 0.26 | 0.26 | 76 | 1010.5 |
| 20260509200507 | 57 | 186 | 5.2 | 10.4 | 0.00 | 0.26 | 0.26 | 76 | 1010.3 |
| 20260509200008 | 57 | 188 | 7.8 | 13.0 | 0.00 | 0.26 | 0.26 | 76 | 1010.3 |
| 20260509195507 | 57 | 182 | 5.2 | 10.4 | 0.00 | 0.26 | 0.26 | 76 | 1010.2 |
| 20260509195007 | 57 | 177 | 5.2 | 10.4 | 0.00 | 0.26 | 0.26 | 76 | 1010.1 |
| 20260509194507 | 57 | 173 | 5.2 | 10.4 | 0.00 | 0.26 | 0.26 | 76 | 1010.0 |
| 20260509194007 | 57 | 179 | 5.2 | 11.3 | 0.00 | 0.26 | 0.26 | 76 | 1009.9 |
| 20260509193507 | 57 | 171 | 6.1 | 12.2 | 0.00 | 0.26 | 0.26 | 77 | 1009.8 |
| 20260509193007 | 57 | 193 | 7.0 | 11.3 | 0.00 | 0.26 | 0.26 | 79 | 1009.7 |
| 20260509192507 | 57 | 190 | 5.2 | 10.4 | 0.00 | 0.26 | 0.26 | 82 | 1009.6 |
| 20260509192007 | 57 | 167 | 5.2 | 8.7 | 0.00 | 0.26 | 0.26 | 83 | 1009.4 |
| 20260509191507 | 57 | 160 | 3.5 | 6.1 | 0.00 | 0.26 | 0.26 | 83 | 1009.4 |
| 20260509191007 | 57 | 131 | 0.0 | 2.6 | 0.00 | 0.26 | 0.26 | 83 | 1009.4 |
| 20260509190507 | 57 | 154 | 0.9 | 2.6 | 0.00 | 0.26 | 0.26 | 83 | 1009.5 |
| 20260509190008 | 58 | 206 | 2.6 | 5.2 | 0.00 | 0.26 | 0.26 | 82 | 1009.4 |
| 20260509185507 | 58 | 191 | 2.6 | 5.2 | 0.00 | 0.26 | 0.26 | 82 | 1009.4 |
| 20260509185007 | 58 | 167 | 2.6 | 6.1 | 0.00 | 0.26 | 0.26 | 82 | 1009.2 |
| 20260509184509 | 58 | 179 | 4.3 | 8.7 | 0.00 | 0.26 | 0.26 | 82 | 1009.3 |
| 20260509184010 | 58 | 154 | 4.3 | 7.8 | 0.00 | 0.26 | 0.26 | 81 | 1009.3 |
| 20260509183512 | 58 | 167 | 5.2 | 10.4 | 0.00 | 0.26 | 0.26 | 81 | 1009.3 |
| 20260509183008 | 58 | 163 | 3.5 | 8.7 | 0.00 | 0.26 | 0.26 | 80 | 1009.3 |
| 20260509182507 | 58 | 147 | 5.2 | 8.7 | 0.00 | 0.26 | 0.26 | 80 | 1009.3 |
| 20260509182007 | 58 | 173 | 3.5 | 7.8 | 0.00 | 0.26 | 0.26 | 80 | 1009.3 |
| 20260509181507 | 58 | 180 | 6.1 | 10.4 | 0.00 | 0.26 | 0.26 | 79 | 1009.2 |
| 20260509180507 | 58 | 184 | 6.1 | 10.4 | 0.00 | 0.26 | 0.26 | 78 | 1009.4 |
| 20260509180008 | 58 | 176 | 6.1 | 10.4 | 0.00 | 0.26 | 0.26 | 78 | 1009.4 |
| 20260509175507 | 58 | 167 | 5.2 | 8.7 | 0.00 | 0.26 | 0.26 | 79 | 1009.4 |
| 20260509175007 | 58 | 180 | 5.2 | 8.7 | 0.01 | 0.26 | 0.26 | 79 | 1009.5 |
| 20260509174507 | 57 | 174 | 5.2 | 10.4 | 0.05 | 0.26 | 0.26 | 80 | 1009.4 |
| 20260509174007 | 57 | 182 | 4.3 | 10.4 | 0.06 | 0.26 | 0.26 | 83 | 1009.4 |
| 20260509173507 | 57 | 169 | 4.3 | 7.8 | 0.06 | 0.26 | 0.26 | 83 | 1009.4 |
| 20260509173007 | 57 | 157 | 1.7 | 5.2 | 0.06 | 0.26 | 0.26 | 85 | 1009.4 |
| 20260509172507 | 56 | 147 | 2.6 | 6.1 | 0.06 | 0.26 | 0.26 | 85 | 1009.4 |
| 20260509172007 | 56 | 161 | 4.3 | 7.8 | 0.06 | 0.26 | 0.26 | 85 | 1009.4 |
| 20260509171507 | 57 | 165 | 4.3 | 10.4 | 0.06 | 0.26 | 0.26 | 86 | 1009.5 |
| 20260509171007 | 56 | 174 | 4.3 | 7.8 | 0.06 | 0.26 | 0.26 | 85 | 1009.6 |
| 20260509165506 | 56 | 197 | 5.2 | 12.2 | 0.06 | 0.26 | 0.26 | 81 | 1009.4 |
| 20260509165013 | 58 | 188 | 9.6 | 17.4 | 0.06 | 0.25 | 0.25 | 78 | 1009.6 |
| 20260509164507 | 60 | 172 | 6.1 | 11.3 | 0.02 | 0.21 | 0.21 | 78 | 1009.6 |
| 20260509164007 | 60 | 161 | 4.3 | 6.1 | 0.01 | 0.20 | 0.20 | 75 | 1009.2 |
| 20260509163507 | 61 | 189 | 0.9 | 2.6 | 0.00 | 0.20 | 0.20 | 73 | 1009.0 |
| 20260509163007 | 61 | 243 | 1.7 | 4.3 | 0.00 | 0.20 | 0.20 | 71 | 1009.0 |
| 20260509162507 | 61 | 200 | 2.6 | 5.2 | 0.00 | 0.20 | 0.20 | 70 | 1008.9 |
| 20260509161507 | 62 | 254 | 0.0 | 2.6 | 0.00 | 0.20 | 0.20 | 71 | 1008.9 |
| 20260509161006 | 62 | 238 | 2.6 | 6.1 | 0.00 | 0.20 | 0.20 | 68 | 1008.9 |
| 20260509160507 | 62 | 239 | 2.6 | 2.6 | 0.00 | 0.20 | 0.20 | 71 | 1008.9 |
| 20260509160007 | 61 | 281 | 0.9 | 2.6 | 0.00 | 0.20 | 0.20 | 71 | 1009.0 |
| 20260509155507 | 61 | 278 | 1.7 | 2.6 | 0.00 | 0.20 | 0.20 | 71 | 1009.0 |
| 20260509155007 | 60 | 5 | 0.0 | 2.6 | 0.00 | 0.20 | 0.20 | 74 | 1009.0 |
| 20260509154507 | 60 | 263 | 0.9 | 2.6 | 0.00 | 0.20 | 0.20 | 74 | 1009.1 |
| 20260509154007 | 59 | 182 | 2.6 | 5.2 | 0.00 | 0.20 | 0.20 | 74 | 1009.1 |
| 20260509153507 | 60 | 179 | 2.6 | 6.1 | 0.00 | 0.20 | 0.20 | 74 | 1009.2 |
| 20260509153013 | 59 | 150 | 1.7 | 5.2 | 0.00 | 0.20 | 0.20 | 76 | 1009.3 |
| 20260509152506 | 59 | 166 | 1.7 | 2.6 | 0.00 | 0.20 | 0.20 | 79 | 1009.6 |
| 20260509152006 | 59 | 205 | 1.7 | 5.2 | 0.00 | 0.20 | 0.20 | 77 | 1009.6 |
| 20260509151007 | 59 | 192 | 3.5 | 7.8 | 0.00 | 0.20 | 0.20 | 76 | 1009.7 |
| 20260509150507 | 59 | 169 | 3.5 | 6.1 | 0.00 | 0.20 | 0.20 | 75 | 1009.7 |
| 20260509150007 | 59 | 186 | 3.5 | 10.4 | 0.00 | 0.20 | 0.20 | 75 | 1009.7 |
| 20260509145007 | 59 | 146 | 4.3 | 8.7 | 0.00 | 0.20 | 0.20 | 75 | 1009.5 |
| 20260509144006 | 59 | 134 | 3.5 | 7.8 | 0.00 | 0.20 | 0.20 | 76 | 1009.6 |
| 20260509143506 | 58 | 156 | 2.6 | 8.7 | 0.00 | 0.20 | 0.20 | 76 | 1009.4 |
| 20260509143006 | 58 | 153 | 3.5 | 5.2 | 0.00 | 0.20 | 0.20 | 76 | 1009.6 |
| 20260509142506 | 57 | 150 | 2.6 | 4.3 | 0.02 | 0.20 | 0.20 | 76 | 1009.7 |
| 20260509142006 | 57 | 149 | 2.6 | 7.0 | 0.03 | 0.20 | 0.20 | 78 | 1009.7 |
| 20260509141506 | 57 | 147 | 2.6 | 7.8 | 0.04 | 0.20 | 0.20 | 78 | 1010.0 |
| 20260509141006 | 56 | 134 | 2.6 | 6.1 | 0.06 | 0.20 | 0.20 | 80 | 1010.0 |
| 20260509140506 | 55 | 88 | 1.7 | 2.6 | 0.09 | 0.20 | 0.20 | 85 | 1010.1 |
| 20260509135507 | 54 | 114 | 1.7 | 4.3 | 0.13 | 0.20 | 0.20 | 85 | 1010.0 |
| 20260509135006 | 54 | 118 | 1.7 | 4.3 | 0.14 | 0.20 | 0.20 | 87 | 1010.2 |
| 20260509134506 | 54 | 156 | 0.9 | 4.3 | 0.16 | 0.20 | 0.20 | 88 | 1010.3 |
| 20260509134006 | 53 | 196 | 0.0 | 4.3 | 0.16 | 0.20 | 0.20 | 88 | 1010.3 |
| 20260509133506 | 53 | 172 | 2.6 | 5.2 | 0.16 | 0.20 | 0.20 | 87 | 1010.7 |
| 20260509133006 | 53 | 187 | 5.2 | 7.0 | 0.16 | 0.20 | 0.20 | 87 | 1010.7 |
| 20260509132506 | 54 | 197 | 2.6 | 7.8 | 0.13 | 0.17 | 0.17 | 90 | 1010.7 |
| 20260509132006 | 54 | 246 | 6.1 | 10.4 | 0.13 | 0.17 | 0.17 | 89 | 1010.7 |
| 20260509131506 | 54 | 262 | 4.3 | 8.7 | 0.12 | 0.16 | 0.16 | 91 | 1010.7 |
| 20260509131006 | 54 | 287 | 4.3 | 8.7 | 0.09 | 0.13 | 0.13 | 90 | 1010.8 |
| 20260509130506 | 54 | 283 | 8.7 | 13.9 | 0.07 | 0.11 | 0.11 | 89 | 1010.8 |
| 20260509130007 | 55 | 292 | 8.7 | 12.2 | 0.05 | 0.09 | 0.09 | 88 | 1010.4 |
| 20260509125507 | 55 | 278 | 4.3 | 7.8 | 0.03 | 0.07 | 0.07 | 88 | 1010.3 |
| 20260509125007 | 55 | 285 | 7.8 | 10.4 | 0.02 | 0.06 | 0.06 | 87 | 1010.0 |
| 20260509124507 | 56 | 290 | 6.1 | 12.2 | 0.00 | 0.05 | 0.04 | 86 | 1010.0 |
| 20260509124006 | 56 | 307 | 7.8 | 11.3 | 0.00 | 0.06 | 0.04 | 85 | 1009.9 |
| 20260509123507 | 57 | 308 | 8.7 | 10.4 | 0.00 | 0.08 | 0.04 | 83 | 1009.9 |
| 20260509122507 | 57 | 312 | 7.0 | 10.4 | 0.00 | 0.13 | 0.04 | 80 | 1009.7 |
| 20260509122006 | 58 | 302 | 7.8 | 12.2 | 0.00 | 0.13 | 0.04 | 80 | 1009.9 |
| 20260509121506 | 58 | 282 | 7.0 | 11.3 | 0.00 | 0.13 | 0.04 | 79 | 1009.9 |